GORIZONT 25 1 21922U 92017A 12030.38858488 -.00000354 00000-0 10000-3 0 5873 2 21922 013.2293 032.2077 0029251 331.6641 028.2166 00.99852128 72505 GORIZONT 26 1 22041U 92043A 12033.34767215 -.00000309 +00000-0 +10000-3 0 02104 2 22041 013.1400 033.6074 0029086 127.2678 233.0510 00.99245304071403 GORIZONT 27 1 22245U 92082A 12034.21334468 .00000054 00000-0 10000-3 0 7404 2 22245 013.0572 034.3507 0012598 262.7815 097.1315 01.00207165 74574 GORIZONT 28 1 22880U 93069A 12033.19270988 +.00000035 +00000-0 +10000-3 0 05875 2 22880 012.6685 037.5933 0034802 023.2190 336.9915 00.99654969066830 GORIZONT 29 1 22907U 93072A 12033.63916366 +.00000134 +00000-0 +10000-3 0 09532 2 22907 012.6367 037.5494 0011151 241.0184 118.9282 01.00131084066649 GORIZONT 30 1 23108U 94030A 12033.45279666 -.00000343 +00000-0 +10000-3 0 07638 2 23108 012.5107 038.6723 0001452 008.2309 351.8390 01.00376322064862 GORIZONT 31 1 23775U 96005A 12034.36114293 -.00000321 +00000-0 +10000-3 0 02245 2 23775 011.5872 044.1741 0019467 085.1811 275.1092 00.99899088058630 GORIZONT 32 1 23880U 96034A 12033.84542644 +.00000136 +00000-0 +10000-3 0 09375 2 23880 011.4536 045.0482 0008594 247.0225 185.7257 01.00156181057475 GORIZONT 33 1 26372U 00029A 12034.26577392 +.00000072 +00000-0 +10000-3 0 09120 2 26372 008.8489 053.8901 0003637 335.9480 024.1107 01.00239234042809